Hourly Weather Eibar

Today, 5 July, Sunday

Time Temperature Precipitation Wind Pressure Humidity
00:00 +15°C° 0 mm 1 mps 737 mmHg 60%
01:00 +15°C° 0 mm 1 mps 737 mmHg 57%
02:00 +15°C° 0 mm 1 mps 737 mmHg 54%
03:00 +15°C° 0 mm 1 mps 736 mmHg 51%
04:00 +16°C° 0 mm 1 mps 736 mmHg 53%
05:00 +15°C° 0 mm 0 mps 736 mmHg 54%
06:00 +16°C° 0 mm 0 mps 736 mmHg 56%
07:00 +18°C° 0 mm 0 mps 736 mmHg 51%
08:00 +23°C° 0 mm 1 mps 737 mmHg 45%
09:00 +25°C° 0 mm 1 mps 737 mmHg 40%
10:00 +26°C° 0 mm 1 mps 737 mmHg 39%
11:00 +27°C° 0 mm 2 mps 737 mmHg 39%
12:00 +28°C° 0 mm 2 mps 737 mmHg 39%
13:00 +28°C° 0 mm 2 mps 736 mmHg 41%
14:00 +28°C° 0 mm 2 mps 736 mmHg 42%
15:00 +28°C° 0 mm 2 mps 736 mmHg 44%
16:00 +27°C° 0 mm 2 mps 735 mmHg 48%
17:00 +26°C° 0 mm 2 mps 735 mmHg 53%
18:00 +24°C° 0 mm 2 mps 735 mmHg 58%
19:00 +21°C° 0 mm 2 mps 735 mmHg 68%
20:00 +19°C° 0 mm 2 mps 736 mmHg 78%
21:00 +16°C° 0 mm 1 mps 736 mmHg 88%
22:00 +16°C° 0 mm 1 mps 736 mmHg 90%
23:00 +16°C° 0 mm 1 mps 736 mmHg 91%

Tomorrow, 6 July, Monday

Time Temperature Precipitation Wind Pressure Humidity
00:00 +16°C° 0 mm 1 mps 736 mmHg 93%
01:00 +16°C° 0.1 mm 1 mps 736 mmHg 94%
02:00 +18°C° 0.1 mm 1 mps 736 mmHg 94%
03:00 +18°C° 0.1 mm 1 mps 736 mmHg 95%
04:00 +17°C° 0.3 mm 2 mps 736 mmHg 96%
05:00 +18°C° 0.3 mm 2 mps 736 mmHg 97%
06:00 +18°C° 0.3 mm 2 mps 736 mmHg 98%
07:00 +18°C° 0.2 mm 2 mps 736 mmHg 97%
08:00 +18°C° 0.2 mm 2 mps 736 mmHg 97%
09:00 +18°C° 0.2 mm 2 mps 736 mmHg 96%
10:00 +18°C° 0.2 mm 3 mps 736 mmHg 93%
11:00 +19°C° 0.2 mm 3 mps 736 mmHg 91%
12:00 +19°C° 0.2 mm 3 mps 736 mmHg 89%
13:00 +19°C° 0.1 mm 3 mps 737 mmHg 89%
14:00 +19°C° 0.1 mm 3 mps 737 mmHg 89%
15:00 +18°C° 0.1 mm 3 mps 737 mmHg 89%
16:00 +18°C° 0 mm 3 mps 736 mmHg 88%
17:00 +17°C° 0 mm 3 mps 736 mmHg 88%
18:00 +17°C° 0 mm 2 mps 736 mmHg 87%
19:00 +16°C° 0 mm 2 mps 737 mmHg 89%
20:00 +15°C° 0 mm 2 mps 737 mmHg 90%
21:00 +14°C° 0 mm 2 mps 737 mmHg 92%
22:00 +14°C° 0 mm 1 mps 737 mmHg 91%
23:00 +14°C° 0 mm 1 mps 736 mmHg 91%

Day after tomorrow, 7 July, Tuesday

Time Temperature Precipitation Wind Pressure Humidity
00:00 +13°C° 0 mm 1 mps 736 mmHg 90%
01:00 +14°C° 0 mm 1 mps 736 mmHg 90%
02:00 +14°C° 0 mm 1 mps 735 mmHg 89%
03:00 +14°C° 0 mm 1 mps 735 mmHg 89%
04:00 +14°C° 0 mm 1 mps 735 mmHg 88%
05:00 +14°C° 0 mm 1 mps 735 mmHg 88%
06:00 +14°C° 0 mm 1 mps 735 mmHg 88%
07:00 +16°C° 0 mm 2 mps 735 mmHg 78%
08:00 +18°C° 0 mm 2 mps 734 mmHg 68%
09:00 +19°C° 0 mm 2 mps 734 mmHg 58%
10:00 +20°C° 0 mm 3 mps 734 mmHg 53%
11:00 +22°C° 0 mm 3 mps 734 mmHg 48%
12:00 +24°C° 0 mm 3 mps 734 mmHg 43%
13:00 +24°C° 0 mm 3 mps 734 mmHg 44%
14:00 +24°C° 0 mm 3 mps 733 mmHg 45%
15:00 +24°C° 0 mm 3 mps 733 mmHg 46%
16:00 +22°C° 0 mm 3 mps 733 mmHg 53%
17:00 +21°C° 0 mm 3 mps 733 mmHg 59%
18:00 +20°C° 0 mm 2 mps 733 mmHg 65%
19:00 +18°C° 0 mm 2 mps 733 mmHg 75%
20:00 +16°C° 0 mm 1 mps 733 mmHg 85%
21:00 +13°C° 0 mm 1 mps 733 mmHg 94%
22:00 +13°C° 0 mm 1 mps 733 mmHg 95%
23:00 +13°C° 0 mm 1 mps 733 mmHg 95%

8 July, Wednesday

Time Temperature Precipitation Wind Pressure Humidity
00:00 +12°C° 0 mm 1 mps 733 mmHg 96%
01:00 +12°C° 0 mm 1 mps 733 mmHg 96%
02:00 +12°C° 0 mm 1 mps 733 mmHg 96%
03:00 +12°C° 0 mm 1 mps 732 mmHg 96%
04:00 +13°C° 0 mm 1 mps 733 mmHg 94%
05:00 +14°C° 0 mm 1 mps 733 mmHg 92%
06:00 +15°C° 0 mm 1 mps 733 mmHg 90%
07:00 +19°C° 0 mm 1 mps 733 mmHg 79%
08:00 +21°C° 0 mm 1 mps 734 mmHg 68%
09:00 +24°C° 0 mm 1 mps 734 mmHg 57%
10:00 +25°C° 0 mm 1 mps 734 mmHg 54%
11:00 +26°C° 0 mm 2 mps 734 mmHg 50%
12:00 +27°C° 0 mm 2 mps 734 mmHg 46%
13:00 +27°C° 0 mm 3 mps 733 mmHg 48%
14:00 +27°C° 0 mm 3 mps 733 mmHg 50%
15:00 +27°C° 0 mm 3 mps 732 mmHg 52%
16:00 +25°C° 0 mm 3 mps 733 mmHg 57%
17:00 +24°C° 0 mm 2 mps 733 mmHg 62%
18:00 +23°C° 0 mm 2 mps 733 mmHg 67%
19:00 +20°C° 0 mm 2 mps 733 mmHg 76%
20:00 +19°C° 0 mm 1 mps 733 mmHg 85%
21:00 +16°C° 0 mm 1 mps 734 mmHg 94%
22:00 +16°C° 0 mm 1 mps 733 mmHg 94%
23:00 +15°C° 0 mm 1 mps 733 mmHg 95%

9 July, Thursday

Time Temperature Precipitation Wind Pressure Humidity
00:00 +15°C° 0 mm 1 mps 733 mmHg 95%
01:00 +15°C° 0 mm 1 mps 733 mmHg 95%
02:00 +15°C° 0 mm 1 mps 733 mmHg 96%
03:00 +15°C° 0 mm 1 mps 733 mmHg 96%
04:00 +16°C° 0 mm 1 mps 733 mmHg 94%
05:00 +16°C° 0 mm 1 mps 733 mmHg 93%
06:00 +18°C° 0 mm 1 mps 733 mmHg 92%
07:00 +20°C° 0 mm 1 mps 734 mmHg 83%
08:00 +22°C° 0 mm 1 mps 734 mmHg 74%
09:00 +25°C° 0 mm 2 mps 734 mmHg 65%
10:00 +26°C° 0 mm 2 mps 734 mmHg 61%
11:00 +27°C° 0 mm 2 mps 734 mmHg 57%
12:00 +28°C° 0 mm 3 mps 734 mmHg 53%
13:00 +28°C° 0 mm 3 mps 734 mmHg 54%
14:00 +28°C° 0 mm 3 mps 733 mmHg 56%
15:00 +27°C° 0 mm 3 mps 733 mmHg 57%
16:00 +26°C° 0 mm 3 mps 733 mmHg 62%
17:00 +25°C° 0 mm 2 mps 733 mmHg 66%
18:00 +24°C° 0 mm 2 mps 733 mmHg 70%
19:00 +21°C° 0 mm 2 mps 733 mmHg 79%
20:00 +20°C° 0 mm 1 mps 734 mmHg 88%
21:00 +18°C° 0 mm 1 mps 734 mmHg 96%
22:00 +18°C° 0 mm 1 mps 734 mmHg 97%
23:00 +16°C° 0 mm 1 mps 734 mmHg 98%

10 July, Friday

Time Temperature Precipitation Wind Pressure Humidity
00:00 +16°C° 0 mm 1 mps 734 mmHg 98%
01:00 +16°C° 0 mm 1 mps 734 mmHg 98%
02:00 +18°C° 0 mm 1 mps 734 mmHg 97%
03:00 +18°C° 0 mm 1 mps 734 mmHg 96%
04:00 +18°C° 0 mm 1 mps 734 mmHg 95%
05:00 +18°C° 0 mm 1 mps 734 mmHg 94%
06:00 +18°C° 0 mm 1 mps 734 mmHg 93%
07:00 +20°C° 0 mm 1 mps 734 mmHg 85%
08:00 +21°C° 0 mm 1 mps 734 mmHg 77%
09:00 +22°C° 0 mm 1 mps 734 mmHg 69%
10:00 +23°C° 0 mm 2 mps 734 mmHg 65%
11:00 +25°C° 0 mm 2 mps 734 mmHg 61%
12:00 +26°C° 0 mm 3 mps 734 mmHg 57%
13:00 +25°C° 0 mm 3 mps 734 mmHg 60%
14:00 +25°C° 0 mm 3 mps 733 mmHg 62%
15:00 +25°C° 0 mm 3 mps 733 mmHg 65%
16:00 +24°C° 0 mm 3 mps 733 mmHg 69%
17:00 +22°C° 0 mm 3 mps 733 mmHg 73%
18:00 +21°C° 0 mm 2 mps 733 mmHg 77%
19:00 +19°C° 0 mm 2 mps 733 mmHg 83%
20:00 +18°C° 0 mm 2 mps 734 mmHg 88%
21:00 +17°C° 0 mm 2 mps 734 mmHg 93%
22:00 +17°C° 0 mm 2 mps 734 mmHg 93%
23:00 +18°C° 0 mm 1 mps 734 mmHg 93%
Show more